Dewpoint
55 55 56 56 57 58 58 59 59 59 60 60 60 59 59 58 56 55 55 55 54 55 54 54 54 52 39 20 23 30 39 38 36 36 33 27 22 23 21 22 23 23 27 32 34 36 36
56 57 57 58 58 58 58 59 59 59 60 60 60 59 59 58 56 55 54 55 52 54 53 53 52 51 26 14 30 30 33 35 37 35 35 31 27 27 25 25 23 25 29 33 34 34 35
56 57 58 58 59 59 59 59 59 60 60 60 60 59 59 58 56 53 53 52 50 52 53 53 53 35 23 25 31 30 34 35 38 36 34 38 34 25 25 25 27 28 27 29 33 32 30
58 58 58 59 59 59 60 60 60 60 60 60 60 59 58 58 55 52 52 50 48 49 51 51 49 28 23 30 31 29 32 31 36 39 38 39 31 24 26 22 21 23 24 21 27 31 30
58 59 59 59 60 60 60 61 61 60 60 60 60 59 58 57 53 51 48 46 42 44 46 43 31 19 17 27 26 30 32 30 33 35 31 23 24 21 18 15 14 16 9 12 17 28 29
59 59 60 60 60 61 61 61 61 59 59 60 59 59 58 57 52 49 42 41 36 34 33 27 23 16 20 22 28 30 32 33 30 28 27 22 18 14 13 10 7 7 8 9 11 20 25
59 60 60 60 61 61 62 61 60 59 58 59 59 58 58 57 51 47 37 32 24 23 30 26 25 20 24 29 31 26 28 28 24 22 18 21 16 11 11 15 13 12 11 11 13 18 21
60 61 61 61 61 61 61 61 59 58 58 58 58 57 57 56 49 43 41 35 39 38 19 32 28 26 30 30 19 24 26 22 20 16 19 16 13 13 16 16 13 12 12 12 16 19 21
61 61 62 62 61 61 60 59 58 57 57 57 57 56 57 54 45 41 40 41 44 43 19 19 25 24 24 25 23 21 26 24 20 15 18 16 14 14 13 10 9 12 12 13 15 18 20
61 62 61 60 61 61 60 59 59 57 56 56 56 56 57 50 42 40 39 43 45 44 21 19 19 23 22 24 18 26 27 25 18 15 16 16 17 11 12 9 10 11 15 17 17 17 13
62 62 60 60 60 59 58 58 58 58 58 56 55 55 55 46 41 37 41 44 45 40 18 22 20 24 21 18 18 19 24 22 16 15 16 13 15 14 12 9 12 11 17 18 20 19 19
61 61 61 60 59 57 57 57 56 56 56 55 54 55 52 46 43 43 44 45 41 27 20 19 23 20 19 18 16 17 20 20 20 15 15 15 19 17 12 13 15 17 18 21 23 21 18
61 61 60 59 58 56 56 55 55 55 56 54 55 54 48 43 39 44 45 39 31 27 22 22 23 20 16 17 16 15 16 15 12 18 18 15 15 16 14 13 16 17 16 17 16 17 13
59 58 58 57 57 56 55 54 54 55 56 56 54 48 45 42 43 43 42 32 26 21 22 20 21 17 15 17 17 20 15 14 17 13 14 14 20 14 14 13 12 17 15 14 13 13 13
57 57 57 57 57 55 54 54 54 56 54 54 51 48 46 44 42 43 36 31 27 24 20 22 22 22 24 20 18 25 12 15 18 15 18 13 18 13 14 13 16 13 13 16 13 13 13
57 57 57 57 55 54 53 54 55 54 54 53 48 46 46 45 41 41 32 26 21 19 21 20 24 19 23 20 26 24 13 15 19 18 16 12 15 13 14 15 17 15 16 15 18 15 15
57 56 56 55 54 54 54 54 55 55 53 48 47 42 47 43 43 37 32 28 21 21 22 23 22 22 17 20 20 22 16 13 19 18 16 15 14 18 14 14 13 15 15 14 15 15 15
56 56 57 56 55 55 55 55 56 56 50 48 46 36 47 44 38 35 32 26 23 23 22 21 19 18 17 20 22 22 16 14 19 17 17 14 14 19 20 14 14 12 12 14 15 17 17
57 56 57 56 56 55 54 55 57 56 47 47 43 42 46 43 33 36 34 31 24 24 23 23 23 20 19 20 26 22 22 19 21 18 22 21 22 24 25 17 15 13 12 13 15 16 14
56 56 56 56 56 55 53 55 55 56 50 46 42 36 40 35 33 34 33 31 28 24 22 22 20 21 20 25 23 24 25 24 20 19 20 21 26 26 25 26 26 24 23 18 14 16 17
56 56 56 55 54 54 54 55 55 55 52 47 43 40 37 36 35 33 33 30 30 32 28 24 24 21 25 30 31 29 24 24 29 28 25 20 19 20 21 22 22 21 22 21 19 18 18
55 56 55 54 53 53 54 54 54 54 51 46 42 39 37 36 33 35 34 33 31 32 32 31 26 28 26 27 31 31 32 32 32 24 21 21 26 20 23 24 23 22 22 22 21 21 19
55 55 54 53 53 53 53 54 54 55 51 46 37 36 41 38 33 36 35 33 33 31 34 30 29 30 33 33 34 34 32 31 33 32 23 22 24 24 25 23 22 22 23 23 22 22 20
54 54 53 52 53 52 52 53 54 55 51 47 42 42 41 37 38 37 36 35 35 34 36 35 31 33 36 30 32 33 33 32 31 31 30 29 24 24 26 24 19 22 23 23 22 22 23
53 52 52 52 52 52 52 52 54 55 52 50 42 43 43 39 38 38 37 37 37 37 36 35 37 36 32 33 34 34 33 30 26 23 27 29 26 27 25 24 23 22 23 23 22 22 24
52 52 51 51 51 51 51 52 53 54 53 52 47 46 45 42 40 40 39 39 39 39 38 35 35 33 32 34 34 32 28 29 29 26 25 27 28 29 27 23 20 22 23 24 23 23 22
52 51 51 50 50 49 50 50 52 53 54 52 52 48 47 43 43 41 40 38 40 39 38 37 35 32 33 34 33 32 31 30 29 28 24 24 26 24 24 25 24 26 23 23 24 24 21
51 50 50 49 49 49 49 49 50 52 53 52 51 49 48 45 44 43 43 42 39 38 37 36 36 35 33 33 32 33 32 31 30 29 25 27 27 23 24 23 20 23 22 25 29 28 24
50 49 49 49 49 48 48 48 48 49 52 53 49 50 49 46 44 45 45 44 44 44 41 39 38 38 37 35 35 35 32 32 32 29 28 28 31 31 27 25 26 24 25 25 20 22 22
Wind_Speed
11 11 11 12 13 14 15 16 17 18 19 21 22 22 22 21 19 17 14 8 5 5 2 3 2 0 2 5 5 7 13 10 4 4 8 4 9 3 5 5 5 9 5 4 6 6 6
10 11 12 12 13 14 17 18 19 19 21 22 22 23 23 22 19 18 13 5 5 4 4 4 2 3 1 5 5 8 10 6 10 6 8 9 4 5 8 4 3 3 6 10 7 6 5
10 11 11 13 14 15 16 17 18 18 20 22 23 23 24 23 20 19 13 3 4 3 3 3 4 1 12 5 4 7 8 5 6 5 4 5 3 2 3 5 3 8 6 4 7 6 3
9 10 12 12 13 13 15 16 17 18 20 21 22 24 25 25 21 19 12 2 4 3 3 4 3 0 5 2 3 6 8 3 5 5 5 3 5 8 4 6 3 2 2 4 6 7 3
9 10 11 12 13 14 15 16 17 19 21 22 23 26 27 27 24 21 8 2 4 3 4 4 1 1 3 1 3 5 5 4 3 3 5 3 3 4 2 2 3 1 5 6 4 8 3
7 9 11 12 13 15 14 15 17 20 22 22 23 24 25 26 22 21 4 1 4 1 2 0 2 2 4 6 4 5 3 3 2 2 0 3 3 2 3 4 4 6 7 4 9 4 9
7 9 11 12 13 15 15 14 16 19 21 21 22 23 24 23 19 19 2 1 0 3 12 6 2 3 3 7 2 6 5 3 2 4 4 4 3 7 5 2 2 3 6 10 10 3 5
7 9 10 12 13 14 14 15 17 18 19 21 21 23 23 24 12 19 6 6 1 1 8 2 2 2 1 3 3 13 8 3 5 4 4 1 4 3 1 0 3 5 10 8 6 3 5
6 8 10 11 12 13 14 16 18 19 19 20 21 25 26 24 7 6 12 4 1 2 3 3 3 3 3 4 4 10 8 2 5 4 6 2 3 3 3 4 8 11 6 6 7 10 9
9 10 10 12 12 12 14 15 17 17 18 18 20 22 24 24 3 2 4 4 1 2 2 9 5 4 2 2 2 3 4 2 3 4 3 2 3 4 5 4 6 10 2 6 13 9 8
8 9 9 12 12 13 15 14 16 18 19 18 20 20 20 12 1 4 4 3 2 2 0 8 4 3 4 5 5 7 3 2 3 3 2 3 4 5 3 4 3 6 7 10 5 7 7
6 7 9 11 11 13 14 14 16 17 18 19 19 21 13 2 3 2 3 2 2 2 1 2 4 8 3 7 5 8 5 6 1 0 2 1 1 1 3 3 2 11 8 5 1 2 3
6 6 9 11 11 12 12 14 14 15 16 17 19 15 4 1 2 2 1 2 2 3 2 5 4 6 2 7 5 9 6 10 7 5 9 6 0 1 2 5 2 11 10 4 2 3 5
6 8 9 9 9 9 11 13 15 16 17 18 20 4 3 2 1 1 1 1 4 0 1 1 3 3 2 8 3 8 3 4 6 4 3 7 2 4 4 2 4 5 5 4 7 8 15
5 6 7 7 6 9 11 13 14 15 16 17 13 2 1 1 1 2 2 7 2 0 2 5 2 2 1 3 4 6 5 3 3 7 7 7 3 1 1 0 2 1 2 1 5 3 5
5 4 4 4 7 8 9 11 12 14 14 14 3 2 2 6 3 2 4 4 2 1 1 1 3 2 4 5 5 6 3 2 1 2 3 0 8 1 2 2 1 2 3 2 1 6 8
5 4 4 5 7 7 8 10 11 14 16 3 1 1 1 4 3 4 5 3 2 1 0 1 1 2 1 3 3 3 3 0 1 1 1 1 2 2 4 4 2 1 2 2 2 3 5
7 5 5 5 6 6 8 9 10 13 18 3 1 1 3 1 3 3 3 2 1 1 1 0 1 1 2 2 3 2 2 3 3 1 2 1 2 8 13 3 1 3 4 5 4 3 6
8 7 6 6 6 5 6 7 8 10 11 3 2 3 2 3 3 3 2 2 1 2 1 1 1 1 1 2 4 4 3 2 2 2 1 3 2 9 4 2 2 3 2 4 3 2 13
10 9 8 8 7 6 6 4 6 7 6 1 1 0 4 6 3 3 3 1 2 0 1 1 1 1 1 3 4 3 3 2 2 4 1 5 4 10 14 18 15 22 16 11 12 15 20
12 10 9 9 8 7 6 2 2 4 6 1 4 2 1 2 3 4 1 1 1 2 1 1 2 6 4 3 3 5 4 4 4 2 2 3 7 12 19 22 24 29 30 22 23 31 18
12 11 10 10 9 8 7 4 4 1 1 4 1 3 1 3 2 3 1 4 3 2 4 4 5 3 5 7 9 15 12 10 9 2 5 3 5 3 15 20 19 26 23 21 22 28 29
13 12 11 10 10 9 8 6 5 3 2 3 2 2 1 1 2 1 2 4 5 2 4 5 6 5 9 16 14 16 16 17 16 9 7 5 5 2 9 2 10 17 17 10 5 10 9
14 13 11 10 11 10 10 8 7 5 2 2 3 4 3 3 4 5 6 6 7 8 5 3 5 6 3 2 6 12 17 16 14 17 16 7 6 3 9 9 6 5 3 5 14 17 19
15 13 12 11 10 10 9 8 9 8 6 2 3 3 4 3 5 5 9 8 6 7 8 10 11 5 1 2 4 6 4 3 2 3 4 15 9 5 6 7 18 15 2 3 3 12 9
16 15 15 14 12 11 10 9 8 8 10 3 3 3 3 4 9 5 4 6 5 7 5 6 1 1 2 1 2 4 5 3 4 2 2 5 13 9 5 9 12 9 5 4 3 16 5
16 15 13 12 12 10 10 9 9 10 13 4 3 4 4 5 5 6 7 6 4 3 5 1 2 1 2 4 6 7 8 2 6 6 6 6 5 19 20 11 13 9 8 5 4 14 3
17 15 13 12 11 12 10 9 10 10 15 7 3 8 6 6 5 8 7 9 4 4 9 3 2 3 4 7 5 5 5 5 5 5 6 10 8 9 7 8 15 7 7 6 8 6 4
15 13 12 13 12 11 10 10 10 10 13 10 4 3 4 4 5 3 5 8 9 14 11 9 7 4 8 6 5 4 8 5 8 15 3 10 14 6 12 13 3 13 10 3 5 7 5
Wind_Direction
40 36 32 31 30 24 19 15 8 3 2 359 357 357 357 356 348 350 352 341 354 6 73 107 104 74 287 74 49 343 338 347 350 12 45 53 58 88 102 97 90 107 126 93 131 143 128
40 35 33 29 26 22 17 12 7 1 359 358 353 352 355 354 349 348 355 358 22 48 73 79 42 299 182 78 341 341 343 354 17 28 38 38 71 94 92 75 34 88 124 126 142 148 153
40 36 31 24 21 17 12 8 4 0 356 356 352 351 352 352 352 349 352 40 49 59 62 41 3 276 69 73 350 351 8 9 7 21 56 42 75 53 110 106 98 130 133 163 187 191 188
34 30 25 20 14 9 6 3 0 358 355 352 350 350 351 351 348 349 358 36 37 12 353 350 347 7 73 343 344 16 0 10 28 31 73 53 86 86 42 123 92 161 207 255 165 186 171
27 21 15 11 6 3 1 359 359 359 356 352 351 350 349 350 347 351 6 6 3 326 332 340 354 17 61 340 16 344 1 357 341 51 50 71 56 72 123 186 161 175 301 277 269 207 183
17 10 5 2 359 356 356 1 1 360 358 353 351 348 346 348 345 349 2 335 358 15 341 87 88 121 45 345 322 333 342 4 20 315 203 39 45 84 41 355 350 323 309 283 279 198 218
4 360 356 352 352 354 356 360 2 355 353 353 352 347 344 347 344 357 17 346 308 65 41 65 38 66 352 329 279 1 356 319 350 48 17 19 54 20 1 5 2 305 290 288 286 262 269
350 347 346 345 347 350 355 357 355 351 350 350 351 348 343 344 347 6 46 69 72 6 87 58 45 17 322 341 334 15 354 19 29 35 339 165 53 6 343 230 304 304 310 315 285 260 271
334 340 343 347 345 348 354 349 345 347 346 349 349 346 340 341 345 37 62 64 292 196 88 48 42 25 343 352 41 351 4 358 37 38 23 43 41 345 322 313 327 331 301 332 316 312 261
322 328 338 347 346 347 348 343 339 338 344 345 348 343 338 335 69 11 54 340 249 233 123 2 3 26 325 343 65 324 9 1 40 30 5 11 352 349 337 332 338 329 356 315 312 313 316
319 321 336 344 348 346 340 339 342 344 343 346 344 341 340 9 46 47 337 315 184 246 220 344 352 325 359 60 315 23 12 22 48 14 316 5 350 353 346 352 308 311 316 301 300 291 305
310 331 328 335 337 336 337 341 344 340 342 344 343 339 339 13 57 60 332 161 234 157 81 22 336 357 11 23 16 324 16 47 87 76 9 337 270 246 329 308 256 300 293 281 214 259 268
308 322 321 327 330 332 339 339 339 340 339 339 339 340 25 352 12 7 157 224 123 58 347 356 341 355 9 356 10 15 20 34 30 2 2 331 299 43 353 313 213 346 340 332 298 313 304
306 316 320 324 333 338 343 338 337 336 338 340 339 354 35 58 9 319 214 189 82 39 352 343 321 321 53 2 26 358 19 47 49 13 338 354 334 2 8 35 327 3 358 19 322 325 302
291 308 316 325 344 347 339 338 335 341 340 341 336 350 357 27 241 193 250 54 67 127 327 331 328 12 25 7 351 349 36 26 15 5 16 343 286 334 34 339 309 15 1 2 269 262 275
280 296 305 316 323 329 334 332 337 338 334 335 345 337 334 337 182 220 69 104 125 168 334 341 6 358 330 337 345 3 4 49 51 10 314 80 292 197 278 184 92 307 127 290 268 314 303
268 278 282 297 305 315 325 326 324 331 336 329 27 170 2 344 199 48 77 95 149 163 185 26 268 283 282 315 323 327 331 121 220 223 18 172 251 272 284 216 278 245 207 189 272 256 286
245 251 263 276 288 308 320 319 332 340 344 38 67 175 3 268 43 46 80 121 150 148 37 60 147 242 272 319 300 293 277 248 199 226 331 44 299 282 286 324 334 262 248 215 268 271 253
242 244 240 247 260 281 305 329 343 350 12 339 36 328 358 313 93 95 112 118 141 167 188 180 217 234 198 271 297 233 259 311 182 246 352 174 246 303 294 152 102 242 211 242 287 311 265
233 236 238 241 249 254 277 321 327 344 7 84 94 70 24 55 40 100 130 142 166 3 214 197 182 156 208 250 227 286 267 291 188 223 250 179 232 238 273 293 301 285 270 252 251 271 262
228 226 235 235 238 248 258 293 304 343 355 282 23 105 95 86 57 91 94 134 175 233 222 206 225 224 207 256 250 235 247 282 243 194 171 206 247 245 260 273 273 269 271 262 245 245 257
223 223 226 232 234 240 242 228 237 266 3 93 109 144 83 107 141 144 173 193 190 237 210 215 224 199 213 236 239 282 281 286 265 153 177 197 264 262 282 265 270 270 277 262 251 260 251
221 220 222 229 236 233 235 224 223 211 352 114 131 94 206 98 142 182 199 181 197 200 225 235 222 241 249 253 262 274 271 263 253 253 221 210 226 293 282 214 296 283 263 218 207 232 235
214 215 218 228 238 236 227 218 214 202 176 119 155 129 149 183 199 200 194 209 224 226 257 255 217 231 266 3 294 267 258 262 254 251 233 227 191 216 278 302 266 305 173 268 251 256 237
210 207 212 210 221 235 237 226 210 199 193 126 143 150 148 193 213 224 222 222 245 249 241 250 247 245 357 328 288 300 253 252 189 73 214 219 191 239 255 255 286 288 206 189 241 287 264
205 203 202 209 208 217 224 221 217 206 183 148 178 153 139 157 229 219 200 211 240 243 259 233 230 272 168 220 224 257 267 282 250 239 64 179 214 206 203 257 275 308 166 149 146 296 164
199 202 200 211 209 212 220 215 206 195 187 159 201 184 130 184 229 181 213 233 187 220 262 219 214 199 167 201 231 238 255 214 236 225 191 154 192 220 235 253 279 275 152 150 270 313 148
194 195 203 195 217 197 211 213 195 193 182 167 202 196 172 205 220 199 210 224 205 219 259 176 314 214 176 205 212 239 246 228 253 225 196 198 196 201 220 228 280 138 120 240 305 301 272
188 198 201 202 201 214 195 210 209 195 186 172 198 191 154 206 244 207 237 249 256 269 249 193 246 231 186 213 203 240 251 218 244 270 211 260 204 237 218 245 258 202 285 329 351 324 347